This is the latest recevied weather packets stored in our database for station/object W0DXV. If no packets are shown the sender has not sent any weather packets the latest 10 day(s).
| Time | Temp. | Humidity | Pressure | Rain* | Wind** | Luminosity | Snow |
|---|---|---|---|---|---|---|---|
| 1777926392 | 26.11° C | 34% | 1009.8 hPa | 0 mm | - | 485 W/m² | - |
| 1777926089 | 26.11° C | 34% | 1009.8 hPa | 0 mm | - | 496 W/m² | - |
| 1777925786 | 26.11° C | 36% | 1010 hPa | 0 mm | - | 510 W/m² | - |
| 1777925484 | 26.11° C | 33% | 1009.8 hPa | 0 mm | - | 524 W/m² | - |
| 1777925181 | 26.67° C | 35% | 1010 hPa | 0 mm | - | 534 W/m² | - |
| 1777924877 | 27.22° C | 35% | 1009.8 hPa | 0 mm | - | 544 W/m² | - |
| 1777924573 | 26.67° C | 32% | 1010 hPa | 0 mm | - | 556 W/m² | - |
| 1777924269 | 26.11° C | 35% | 1010.1 hPa | 0 mm | - | 568 W/m² | - |
| 1777923966 | 26.11° C | 34% | 1010.3 hPa | 0 mm | - | 582 W/m² | - |
| 1777923662 | 26.67° C | 33% | 1010.1 hPa | 0 mm | - | 594 W/m² | - |
| 1777923358 | 26.11° C | 35% | 1010.2 hPa | 0 mm | - | 603 W/m² | - |
| 1777923057 | 26.67° C | 34% | 1010.4 hPa | 0 mm | - | 596 W/m² | - |
| 1777922755 | 26.11° C | 36% | 1010.4 hPa | 0 mm | - | 614 W/m² | - |
| 1777922453 | 26.67° C | 34% | 1010.5 hPa | 0 mm | - | 634 W/m² | - |
| 1777922151 | 26.67° C | 36% | 1010.7 hPa | 0 mm | - | 641 W/m² | - |
| 1777921846 | 26.67° C | 32% | 1010.5 hPa | 0 mm | - | 655 W/m² | - |
| 1777921543 | 26.11° C | 34% | 1010.7 hPa | 0 mm | - | 662 W/m² | - |
| 1777921239 | 26.11° C | 34% | 1010.8 hPa | 0 mm | - | 672 W/m² | - |
| 1777920936 | 26.11° C | 34% | 1010.9 hPa | 0 mm | - | 680 W/m² | - |
| 1777920633 | 26.11° C | 32% | 1010.9 hPa | 0 mm | - | 687 W/m² | - |
| 1777920328 | 26.67° C | 34% | 1010.9 hPa | 0 mm | - | 701 W/m² | - |
| 1777920023 | 26.67° C | 35% | 1010.9 hPa | 0 mm | - | 707 W/m² | - |
| 1777919721 | 26.11° C | 33% | 1011 hPa | 0 mm | - | 711 W/m² | - |
| 1777919419 | 25.56° C | 33% | 1011.1 hPa | 0 mm | - | 716 W/m² | - |
| 1777919115 | 25.56° C | 34% | 1011.2 hPa | 0 mm | - | 720 W/m² | - |
* Rain latest hour (hover to see other rain measurements)
** Current wind speed in m/s (hover to see current wind gust speed)